Location: Bennemühlen
(52.5740°N, 9.7135°E)
Time: 01:47:41
(UTC+00:00)

A-11 Canister half - Pass Details

Date: 18 February 2026
Orbit: 1512 x 1687 km, 47.2° (Epoch: 8 March)

Event Time Altitude Azimuth Distance (km) Brightness Sun altitude
Rises 00:58:35 0° 278° (W) 4,905 - -45.8°
Reaches altitude 10° 01:01:51 10° 274° (W) 3,897 - -45.6°
Maximum altitude 01:11:22 54° 202° (SSW) 1,906 - -44.8°
Drops below altitude 10° 01:20:32 10° 128° (SE) 3,757 - -44.0°
Exits shadow 01:21:28 - 127° (SE) 4,046 11.2 -43.9°
Sets 01:23:38 0° 124° (SE) 4,718 11.6 -43.7°
